SKW5808 KDEN-KOKC

Flight info

Callsign SKW5808
Flight time 1h 15m
Altitude 31000
Route EPKEE7 DUUZE ROLLS CAMET3
Aircraft E75L/M-SDE3GILORVW/S

Departure

Time 2026-04-14 04:42
Airport Denver International Airport (KDEN)

Arrival

Time 2026-04-14 05:57
Airport OKC Will Rogers World Airport (KOKC)
Time Latitude Longitude Altitude Speed Heading
2026-04-14 04:18 39.85804 -104.66996 5378 ft 0 kts 360°
2026-04-14 04:32 39.85788 -104.66996 5374 ft 3 kts 359°
2026-04-14 04:32 39.85767 -104.66995 5378 ft 3 kts 359°
2026-04-14 04:32 39.85747 -104.66995 5376 ft 3 kts 359°
2026-04-14 04:32 39.85726 -104.66994 5378 ft 3 kts 359°
2026-04-14 04:33 39.85716 -104.66994 5378 ft 0 kts 359°
2026-04-14 04:35 39.85718 -104.66994 5378 ft 0 kts 10°
2026-04-14 04:35 39.85728 -104.66979 5378 ft 4 kts 78°
2026-04-14 04:35 39.85730 -104.66918 5374 ft 10 kts 90°
2026-04-14 04:36 39.85703 -104.66827 5376 ft 12 kts 150°
2026-04-14 04:36 39.85660 -104.66733 5379 ft 14 kts 89°
2026-04-14 04:36 39.85660 -104.66597 5378 ft 16 kts 90°
2026-04-14 04:36 39.85683 -104.66461 5380 ft 15 kts 91°
2026-04-14 04:37 39.85680 -104.66344 5385 ft 11 kts 91°
2026-04-14 04:37 39.85689 -104.66258 5388 ft 9 kts 52°
2026-04-14 04:37 39.85760 -104.66235 5385 ft 14 kts 360°
2026-04-14 04:37 39.85875 -104.66233 5384 ft 18 kts
2026-04-14 04:38 39.86014 -104.66227 5382 ft 22 kts
2026-04-14 04:38 39.86179 -104.66229 5377 ft 26 kts 360°
2026-04-14 04:38 39.86347 -104.66227 5377 ft 24 kts
2026-04-14 04:38 39.86515 -104.66225 5376 ft 25 kts
2026-04-14 04:39 39.86688 -104.66223 5373 ft 26 kts
2026-04-14 04:39 39.86864 -104.66223 5368 ft 26 kts
2026-04-14 04:39 39.87049 -104.66218 5366 ft 27 kts
2026-04-14 04:39 39.87234 -104.66215 5361 ft 23 kts 358°
2026-04-14 04:40 39.87385 -104.66216 5359 ft 23 kts
2026-04-14 04:40 39.87545 -104.66212 5359 ft 23 kts
2026-04-14 04:40 39.87686 -104.66211 5360 ft 18 kts 360°
2026-04-14 04:41 39.87756 -104.66066 5356 ft 14 kts 89°
2026-04-14 04:41 39.87752 -104.65718 5353 ft 72 kts 90°
2026-04-14 04:41 39.87745 -104.64757 5342 ft 138 kts 92°
2026-04-14 04:41 39.87708 -104.63345 5607 ft 171 kts 90°
2026-04-14 04:42 39.87708 -104.61721 6018 ft 189 kts 88°
2026-04-14 04:42 39.87734 -104.59831 6397 ft 213 kts 88°
2026-04-14 04:42 39.87762 -104.57963 7535 ft 202 kts 88°
2026-04-14 04:42 39.87809 -104.56112 8298 ft 218 kts 88°
2026-04-14 04:43 39.87812 -104.54007 8757 ft 245 kts 98°
2026-04-14 04:43 39.87086 -104.51927 9320 ft 268 kts 129°
2026-04-14 04:43 39.85723 -104.50108 9063 ft 288 kts 137°
2026-04-14 04:43 39.84390 -104.48217 9029 ft 278 kts 128°
2026-04-14 04:44 39.83343 -104.46120 9007 ft 277 kts 121°
2026-04-14 04:44 39.82491 -104.43852 9186 ft 277 kts 116°
2026-04-14 04:44 39.81731 -104.41559 9622 ft 279 kts 115°
2026-04-14 04:44 39.80947 -104.39164 10481 ft 293 kts 115°
2026-04-14 04:45 39.80112 -104.36689 11282 ft 312 kts 116°
2026-04-14 04:45 39.79178 -104.34023 11748 ft 336 kts 117°
2026-04-14 04:45 39.78172 -104.31160 12227 ft 358 kts 117°
2026-04-14 04:45 39.77137 -104.28176 13129 ft 364 kts 117°
2026-04-14 04:46 39.76095 -104.25168 14159 ft 367 kts 117°
2026-04-14 04:46 39.75044 -104.22142 15248 ft 368 kts 118°
2026-04-14 04:46 39.73986 -104.19105 16286 ft 370 kts 118°
2026-04-14 04:46 39.72918 -104.16047 17176 ft 373 kts 118°
2026-04-14 04:47 39.71837 -104.12960 18012 ft 376 kts 119°
2026-04-14 04:47 39.70741 -104.09862 18751 ft 382 kts 119°
2026-04-14 04:47 39.69615 -104.06696 19421 ft 389 kts 120°
2026-04-14 04:47 39.68470 -104.03478 20085 ft 397 kts 120°
2026-04-14 04:48 39.67289 -104.00210 20726 ft 403 kts 120°
2026-04-14 04:48 39.66124 -103.96876 21281 ft 408 kts 119°
2026-04-14 04:48 39.64911 -103.93515 21695 ft 415 kts 121°
2026-04-14 04:48 39.63569 -103.90184 22269 ft 418 kts 124°
2026-04-14 04:49 39.62173 -103.86851 22674 ft 423 kts 123°
2026-04-14 04:49 39.60758 -103.83466 23165 ft 429 kts 124°
2026-04-14 04:49 39.59359 -103.80020 23648 ft 437 kts 120°
2026-04-14 04:49 39.58222 -103.76388 24145 ft 444 kts 115°
2026-04-14 04:50 39.57165 -103.72605 24663 ft 449 kts 115°
2026-04-14 04:50 39.56107 -103.68775 25151 ft 453 kts 115°
2026-04-14 04:50 39.55033 -103.64922 25686 ft 456 kts 115°
2026-04-14 04:50 39.53947 -103.61074 26360 ft 454 kts 116°
2026-04-14 04:51 39.52862 -103.57235 27009 ft 453 kts 116°
2026-04-14 04:51 39.51778 -103.53410 27577 ft 453 kts 117°
2026-04-14 04:51 39.50686 -103.49573 28120 ft 453 kts 117°
2026-04-14 04:51 39.49592 -103.45743 28641 ft 454 kts 117°
2026-04-14 04:52 39.48497 -103.41909 29155 ft 454 kts 117°
2026-04-14 04:52 39.47402 -103.38072 29660 ft 455 kts 118°
2026-04-14 04:52 39.46303 -103.34236 30128 ft 455 kts 118°
2026-04-14 04:52 39.45202 -103.30389 30607 ft 455 kts 118°
2026-04-14 04:53 39.44106 -103.26560 31066 ft 455 kts 119°
2026-04-14 04:53 39.41882 -103.18830 30961 ft 459 kts 118°
2026-04-14 04:54 39.39655 -103.11091 30893 ft 460 kts 118°
2026-04-14 04:54 39.37415 -103.03338 30887 ft 460 kts 118°
2026-04-14 04:55 39.35166 -102.95604 30877 ft 458 kts 121°
2026-04-14 04:55 39.32423 -102.88273 30870 ft 453 kts 126°
2026-04-14 04:56 39.29575 -102.81097 30869 ft 452 kts 126°
2026-04-14 04:56 39.26724 -102.73863 30865 ft 452 kts 126°
2026-04-14 04:57 39.23877 -102.66632 30855 ft 452 kts 126°
2026-04-14 04:57 39.21024 -102.59405 30860 ft 452 kts 126°
2026-04-14 04:58 39.18170 -102.52185 30862 ft 452 kts 126°
2026-04-14 04:58 39.15311 -102.44968 30858 ft 452 kts 126°
2026-04-14 04:59 39.12439 -102.37765 30862 ft 452 kts 126°
2026-04-14 04:59 39.10038 -102.31792 30864 ft 452 kts 126°
2026-04-14 05:00 39.07155 -102.24619 30863 ft 451 kts 126°
2026-04-14 05:00 39.04272 -102.17464 30854 ft 451 kts 126°
2026-04-14 05:01 39.01379 -102.10303 30852 ft 451 kts 126°
2026-04-14 05:01 38.98484 -102.03157 30851 ft 450 kts 126°
2026-04-14 05:02 38.95589 -101.96018 30848 ft 451 kts 126°
2026-04-14 05:02 38.92688 -101.88885 30843 ft 451 kts 126°
2026-04-14 05:03 38.89784 -101.81759 30842 ft 450 kts 126°
2026-04-14 05:03 38.86876 -101.74646 30830 ft 450 kts 126°
2026-04-14 05:03 38.85239 -101.71281 30839 ft 438 kts 138°
2026-04-14 05:04 38.83106 -101.68635 30849 ft 418 kts 154°
2026-04-14 05:04 38.78191 -101.64869 30796 ft 411 kts 160°
2026-04-14 05:05 38.73246 -101.61227 30817 ft 411 kts 159°
2026-04-14 05:05 38.68338 -101.57567 30818 ft 411 kts 159°
2026-04-14 05:06 38.63397 -101.53880 30811 ft 411 kts 159°
2026-04-14 05:06 38.58452 -101.50195 30824 ft 411 kts 159°
2026-04-14 05:07 38.53508 -101.46516 30824 ft 411 kts 159°
2026-04-14 05:07 38.48564 -101.42843 30824 ft 411 kts 159°
2026-04-14 05:08 38.43633 -101.39184 30825 ft 410 kts 159°
2026-04-14 05:08 38.38717 -101.35551 30825 ft 411 kts 159°
2026-04-14 05:09 38.33772 -101.31896 30824 ft 411 kts 159°
2026-04-14 05:09 38.28824 -101.28239 30832 ft 411 kts 159°
2026-04-14 05:10 38.23875 -101.24592 30850 ft 411 kts 159°
2026-04-14 05:10 38.18923 -101.20948 30843 ft 411 kts 159°
2026-04-14 05:11 38.13974 -101.17312 30852 ft 411 kts 159°
2026-04-14 05:11 38.09019 -101.13678 30853 ft 411 kts 159°
2026-04-14 05:12 38.04050 -101.10041 30859 ft 412 kts 159°
2026-04-14 05:12 37.99081 -101.06407 30863 ft 412 kts 159°
2026-04-14 05:13 37.94104 -101.02773 30862 ft 413 kts 160°
2026-04-14 05:13 37.89125 -100.99146 30861 ft 413 kts 160°
2026-04-14 05:14 37.84144 -100.95523 30852 ft 413 kts 160°
2026-04-14 05:14 37.79166 -100.91910 30854 ft 413 kts 160°
2026-04-14 05:15 37.74187 -100.88296 30852 ft 413 kts 160°
2026-04-14 05:15 37.69241 -100.84713 30854 ft 413 kts 160°
2026-04-14 05:16 37.64259 -100.81111 30860 ft 413 kts 160°
2026-04-14 05:16 37.59272 -100.77510 30869 ft 414 kts 160°
2026-04-14 05:17 37.54272 -100.73904 30871 ft 414 kts 160°
2026-04-14 05:17 37.49271 -100.70305 30866 ft 414 kts 160°
2026-04-14 05:18 37.44273 -100.66711 30873 ft 414 kts 160°
2026-04-14 05:18 37.39277 -100.63130 30877 ft 413 kts 160°
2026-04-14 05:19 37.34271 -100.59544 30869 ft 414 kts 160°
2026-04-14 05:19 37.29266 -100.55963 30874 ft 414 kts 160°
2026-04-14 05:20 37.24261 -100.52390 30866 ft 414 kts 160°
2026-04-14 05:20 37.19255 -100.48824 30865 ft 414 kts 160°
2026-04-14 05:21 37.14248 -100.45256 30879 ft 412 kts 160°
2026-04-14 05:21 37.09257 -100.41708 30887 ft 413 kts 160°
2026-04-14 05:22 37.04244 -100.38152 30874 ft 414 kts 160°
2026-04-14 05:22 36.99234 -100.34600 30877 ft 414 kts 160°
2026-04-14 05:23 36.94221 -100.31053 30898 ft 414 kts 160°
2026-04-14 05:23 36.89201 -100.27506 30880 ft 414 kts 160°
2026-04-14 05:24 36.84188 -100.23967 30897 ft 414 kts 160°
2026-04-14 05:24 36.79208 -100.20463 30896 ft 413 kts 160°
2026-04-14 05:25 36.74207 -100.16942 30885 ft 413 kts 160°
2026-04-14 05:25 36.69193 -100.13423 30890 ft 413 kts 160°
2026-04-14 05:26 36.64181 -100.09909 30890 ft 413 kts 160°
2026-04-14 05:26 36.59168 -100.06405 30892 ft 413 kts 160°
2026-04-14 05:27 36.54156 -100.02900 30886 ft 413 kts 160°
2026-04-14 05:27 36.49143 -99.99397 30881 ft 413 kts 160°
2026-04-14 05:28 36.44115 -99.95894 30879 ft 414 kts 160°
2026-04-14 05:28 36.39096 -99.92399 30897 ft 414 kts 160°
2026-04-14 05:29 36.34073 -99.88911 30884 ft 414 kts 160°
2026-04-14 05:29 36.29053 -99.85427 30882 ft 414 kts 160°
2026-04-14 05:30 36.24031 -99.81945 30890 ft 414 kts 160°
2026-04-14 05:30 36.19010 -99.78469 30884 ft 413 kts 160°
2026-04-14 05:31 36.13987 -99.75003 30902 ft 413 kts 160°
2026-04-14 05:31 36.08990 -99.71560 30898 ft 414 kts 160°
2026-04-14 05:32 36.03968 -99.68095 30899 ft 413 kts 160°
2026-04-14 05:32 35.98942 -99.64640 30899 ft 413 kts 160°
2026-04-14 05:33 35.93911 -99.61192 30905 ft 414 kts 160°
2026-04-14 05:33 35.88879 -99.57734 30904 ft 413 kts 160°
2026-04-14 05:34 35.81335 -99.52570 30918 ft 414 kts 160°
2026-04-14 05:34 35.76302 -99.49107 30923 ft 417 kts 157°
2026-04-14 05:35 35.73980 -99.46886 30936 ft 433 kts 142°
2026-04-14 05:35 35.72202 -99.43798 30926 ft 452 kts 123°
2026-04-14 05:35 35.71319 -99.40061 30961 ft 463 kts 103°
2026-04-14 05:35 35.71033 -99.36095 31005 ft 468 kts 98°
2026-04-14 05:36 35.70744 -99.28065 30905 ft 467 kts 98°
2026-04-14 05:36 35.70349 -99.20082 30923 ft 467 kts 99°
2026-04-14 05:37 35.69910 -99.12113 30920 ft 467 kts 99°
2026-04-14 05:37 35.69473 -99.04202 30883 ft 451 kts 99°
2026-04-14 05:38 35.69265 -99.00400 30573 ft 441 kts 99°
2026-04-14 05:38 35.69062 -98.96737 30237 ft 432 kts 99°
2026-04-14 05:38 35.68853 -98.93071 29788 ft 426 kts 99°
2026-04-14 05:38 35.68649 -98.89462 29361 ft 421 kts 99°
2026-04-14 05:39 35.68445 -98.85876 28782 ft 419 kts 99°
2026-04-14 05:39 35.68240 -98.82311 28371 ft 415 kts 99°
2026-04-14 05:39 35.68033 -98.78725 27948 ft 433 kts 99°
2026-04-14 05:39 35.67801 -98.74926 27506 ft 455 kts 99°
2026-04-14 05:40 35.67567 -98.70999 27055 ft 463 kts 98°
2026-04-14 05:40 35.67337 -98.67034 26595 ft 467 kts 98°
2026-04-14 05:40 35.67113 -98.63136 26589 ft 446 kts 98°
2026-04-14 05:40 35.66891 -98.59345 25750 ft 450 kts 98°
2026-04-14 05:41 35.66655 -98.55482 24744 ft 455 kts 98°
2026-04-14 05:41 35.66418 -98.51598 23728 ft 456 kts 97°
2026-04-14 05:41 35.66182 -98.47718 22749 ft 454 kts 97°
2026-04-14 05:41 35.65946 -98.43850 21746 ft 453 kts 97°
2026-04-14 05:42 35.65706 -98.39991 20738 ft 451 kts 97°
2026-04-14 05:42 35.65355 -98.36189 19727 ft 444 kts 104°
2026-04-14 05:42 35.64585 -98.32660 19562 ft 405 kts 109°
2026-04-14 05:42 35.63855 -98.29475 19199 ft 375 kts 108°
2026-04-14 05:43 35.63209 -98.26445 18724 ft 362 kts 108°
2026-04-14 05:43 35.62598 -98.23439 18526 ft 358 kts 107°
2026-04-14 05:43 35.62016 -98.20520 17883 ft 346 kts 107°
2026-04-14 05:43 35.61453 -98.17684 17195 ft 337 kts 107°
2026-04-14 05:44 35.60935 -98.14895 16450 ft 333 kts 105°
2026-04-14 05:44 35.60406 -98.12012 16161 ft 352 kts 105°
2026-04-14 05:44 35.59871 -98.09102 15418 ft 346 kts 105°
2026-04-14 05:44 35.59402 -98.06221 14510 ft 344 kts 99°
2026-04-14 05:45 35.59319 -98.04283 13879 ft 344 kts 88°
2026-04-14 05:45 35.59948 -98.01372 12920 ft 343 kts 60°
2026-04-14 05:45 35.61431 -97.99200 12470 ft 328 kts 33°
2026-04-14 05:45 35.63437 -97.98027 12030 ft 315 kts
2026-04-14 05:46 35.65554 -97.98011 11507 ft 300 kts 340°
2026-04-14 05:46 35.67372 -97.99103 10913 ft 287 kts 313°
2026-04-14 05:46 35.68512 -98.01033 10349 ft 276 kts 285°
2026-04-14 05:46 35.68737 -98.03306 9816 ft 266 kts 258°
2026-04-14 05:47 35.68157 -98.05438 9337 ft 262 kts 239°
2026-04-14 05:47 35.67380 -98.06550 9040 ft 260 kts 219°
2026-04-14 05:47 35.65096 -98.07290 8437 ft 269 kts 177°
2026-04-14 05:47 35.63329 -98.06444 8066 ft 275 kts 157°
2026-04-14 05:48 35.61738 -98.05136 7664 ft 276 kts 149°
2026-04-14 05:48 35.60333 -98.03501 7255 ft 281 kts 139°
2026-04-14 05:48 35.59135 -98.01602 6878 ft 283 kts 130°
2026-04-14 05:48 35.58235 -97.99434 6470 ft 288 kts 119°
2026-04-14 05:49 35.57627 -97.97080 6105 ft 289 kts 112°
2026-04-14 05:49 35.57152 -97.94677 5685 ft 289 kts 111°
2026-04-14 05:49 35.56858 -97.93093 5484 ft 285 kts 110°
2026-04-14 05:49 35.56415 -97.90730 5151 ft 281 kts 111°
2026-04-14 05:50 35.55981 -97.88433 5182 ft 266 kts 111°
2026-04-14 05:50 35.55608 -97.86364 6422 ft 226 kts 112°
2026-04-14 05:50 35.55277 -97.84506 7032 ft 234 kts 111°
2026-04-14 05:50 35.54981 -97.82504 7352 ft 235 kts 111°
2026-04-14 05:51 35.54562 -97.80495 7381 ft 268 kts 114°
2026-04-14 05:51 35.54002 -97.78063 7589 ft 310 kts 111°
2026-04-14 05:51 35.53573 -97.75550 7602 ft 297 kts 98°
2026-04-14 05:51 35.53713 -97.73043 7408 ft 294 kts 86°
2026-04-14 05:52 35.54162 -97.70577 6915 ft 294 kts 81°
2026-04-14 05:52 35.54663 -97.68196 6455 ft 282 kts 82°
2026-04-14 05:52 35.55096 -97.65888 5992 ft 273 kts 84°
2026-04-14 05:52 35.55419 -97.63652 5526 ft 257 kts 98°
2026-04-14 05:53 35.54961 -97.61692 5084 ft 231 kts 134°
2026-04-14 05:53 35.53752 -97.60636 4663 ft 205 kts 169°
2026-04-14 05:53 35.52423 -97.60548 4244 ft 182 kts 188°
2026-04-14 05:53 35.51200 -97.60637 3722 ft 171 kts 182°
2026-04-14 05:54 35.50055 -97.60562 3223 ft 157 kts 178°
2026-04-14 05:54 35.49053 -97.60544 2928 ft 128 kts 186°
2026-04-14 05:54 35.48213 -97.60610 2680 ft 118 kts 183°
2026-04-14 05:54 35.47383 -97.60562 2611 ft 120 kts 180°
2026-04-14 05:55 35.46515 -97.60578 2459 ft 124 kts 182°
2026-04-14 05:55 35.45656 -97.60584 2307 ft 125 kts 180°
2026-04-14 05:55 35.44767 -97.60574 2145 ft 129 kts 179°
2026-04-14 05:55 35.43876 -97.60574 1969 ft 127 kts 180°
2026-04-14 05:56 35.42991 -97.60575 1799 ft 127 kts 179°
2026-04-14 05:56 35.42100 -97.60574 1632 ft 129 kts 180°
2026-04-14 05:56 35.41226 -97.60574 1461 ft 128 kts 180°
2026-04-14 05:56 35.40334 -97.60574 1297 ft 122 kts 180°
2026-04-14 05:57 35.39680 -97.60577 1287 ft 77 kts 180°
2026-04-14 05:57 35.39286 -97.60577 1291 ft 34 kts 181°
2026-04-14 05:57 35.39209 -97.60518 1291 ft 10 kts 89°
2026-04-14 05:57 35.39217 -97.60382 1292 ft 18 kts 91°
2026-04-14 05:58 35.39217 -97.60221 1292 ft 20 kts 92°
2026-04-14 05:58 35.39238 -97.60098 1290 ft 12 kts 16°
2026-04-14 05:58 35.39292 -97.60163 1290 ft 10 kts 314°
2026-04-14 05:58 35.39402 -97.60301 1287 ft 22 kts 313°
2026-04-14 05:59 35.39520 -97.60391 1286 ft 21 kts 351°
2026-04-14 05:59 35.39644 -97.60380 1288 ft 6 kts 34°
2026-04-14 05:59 35.39651 -97.60350 1287 ft 13 kts 95°
2026-04-14 05:59 35.39585 -97.60286 1288 ft 11 kts 143°
2026-04-14 06:00 35.39550 -97.60203 1289 ft 10 kts 63°
2026-04-14 06:00 35.39596 -97.60102 1291 ft 15 kts 68°
2026-04-14 06:00 35.39633 -97.59983 1295 ft 14 kts 84°
2026-04-14 06:00 35.39610 -97.59956 1295 ft 2 kts 181°
2026-04-14 06:01 35.39591 -97.59952 1295 ft 3 kts 172°
2026-04-14 06:01 35.39562 -97.59951 1295 ft 0 kts 178°